PDT,Max TemperatureF,Mean TemperatureF,Min TemperatureF,Max Dew PointF,MeanDew PointF,Min DewpointF,Max Humidity, Mean Humidity, Min Humidity, Max Sea Level PressureIn, Mean Sea Level PressureIn, Min Sea Level PressureIn, Max VisibilityMiles, Mean VisibilityMiles, Min VisibilityMiles, Max Wind SpeedMPH, Mean Wind SpeedMPH, Max Gust SpeedMPH,PrecipitationIn, CloudCover, Events, WindDirDegrees
2013-5-1,61,46,31,39,34,27,85,61,36,30.59,30.55,30.50,9,8,7,13,4,16,0.00,0,,319
2013-5-2,65,51,36,45,36,17,85,52,19,30.55,30.46,30.41,9,8,6,16,5,23,0.00,0,,338
2013-5-3,74,57,40,47,42,36,89,64,38,30.41,30.33,30.24,10,8,7,15,6,21,0.00,0,,310
2013-5-4,82,64,45,42,36,27,77,45,13,30.23,30.11,29.99,10,9,8,25,10,33,0.00,0,,37
2013-5-5,88,68,48,43,39,32,71,43,15,29.99,29.86,29.76,10,9,7,20,8,29,0.00,0,,40
2013-5-6,62,56,49,52,47,40,89,68,46,29.90,29.87,29.81,10,5,0,12,5,17,0.00,4,Fog,185
2013-5-7,59,55,50,49,48,46,89,81,72,30.05,29.97,29.89,7,4,0,14,6,21,0.00,8,Fog,185
2013-5-8,63,55,46,48,46,41,86,74,62,30.20,30.14,30.06,7,6,5,10,4,14,0.00,6,,222
2013-5-9,63,55,47,48,45,43,86,71,56,30.24,30.22,30.18,7,7,5,15,4,28,0.00,4,,293
2013-5-10,61,55,48,49,46,44,86,74,62,30.23,30.20,30.18,8,5,0,13,4,15,0.00,4,Fog,275
2013-5-11,63,57,50,56,52,45,93,80,67,30.22,30.09,30.03,9,4,1,14,4,18,0.78,8,Rain,170
2013-5-12,60,58,55,56,54,52,93,87,80,30.09,30.06,30.03,8,3,0,15,6,23,0.42,8,Fog-Rain,188
2013-5-13,56,52,47,52,50,45,93,85,77,30.21,30.03,29.94,8,3,0,24,7,35,0.70,8,Fog-Rain,203
2013-5-14,61,54,47,48,45,44,93,74,55,30.22,30.19,30.13,8,7,2,14,4,17,0.00,4,,210
2013-5-15,58,54,50,52,49,46,93,83,72,30.12,30.04,29.99,8,6,1,10,4,15,0.22,8,Rain,131
2013-5-16,66,60,54,55,52,50,93,80,67,29.99,29.96,29.92,10,5,1,12,2,15,0.33,8,Rain,119
2013-5-17,62,58,53,54,50,48,89,77,64,30.06,30.00,29.96,10,8,2,16,5,24,0.03,8,Rain,185
2013-5-18,62,57,51,50,48,45,89,78,67,30.32,30.15,30.05,9,6,1,12,6,15,0.17,8,Rain,217
2013-5-19,61,53,44,49,46,41,83,72,61,30.44,30.41,30.34,9,6,2,14,4,18,T,6,Rain,291
2013-5-20,58,51,43,47,43,39,89,75,61,30.39,30.16,29.95,7,4,1,13,3,15,0.22,7,Rain,283
2013-5-21,55,51,47,47,45,43,93,82,71,29.93,29.85,29.80,7,3,0,13,4,17,0.28,8,Fog-Rain,240
2013-5-22,60,54,47,48,45,43,86,74,62,29.93,29.88,29.86,8,5,1,10,3,15,0.10,7,Rain,144
2013-5-23,58,52,46,48,46,43,86,76,66,29.98,29.94,29.91,10,6,1,10,4,15,0.74,8,Rain,69
2013-5-24,59,50,40,48,44,37,92,77,62,30.06,30.02,29.97,9,5,0,12,4,23,0.04,6,Fog-Rain,251
2013-5-25,56,53,49,50,48,46,89,86,83,30.05,30.02,29.97,9,5,0,9,2,15,0.09,8,Fog-Rain,127
2013-5-26,60,56,51,54,51,47,89,83,77,29.99,29.96,29.94,9,5,1,14,4,21,0.14,8,Rain,172
2013-5-27,58,55,52,54,51,47,93,85,77,29.93,29.72,29.62,10,3,1,13,6,23,1.11,8,Rain,146
2013-5-28,58,54,50,52,49,46,89,86,83,29.88,29.83,29.76,10,4,0,17,6,26,0.85,8,Fog-Rain,185
2013-5-29,58,54,49,50,48,46,89,78,67,29.99,29.86,29.71,9,6,1,14,3,17,0.27,8,Rain,242
2013-5-30,59,53,47,52,48,44,93,83,72,30.25,30.08,29.99,9,6,2,13,4,18,0.30,8,Rain,174
2013-5-31,63,57,50,49,47,43,86,69,52,30.36,30.31,30.26,10,8,2,13,4,17,0.08,5,Rain,261